Location: Enikep?du
(16.5133°N, 80.7066°E)
Time: 16:10:54
(UTC+00:00)

Cosmos 1606 Rocket - Pass Details

Date: 20 January 2020
Orbit: 602 x 633 km, 82.5° (Epoch: 23 February)

Event Time Altitude Azimuth Distance (km) Brightness Sun altitude
Rises 00:15:02 0° 191° (S) 2,914 7.1 -13.1°
Reaches altitude 10° 00:17:17 10° 194° (SSW) 2,007 6.2 -12.6°
Maximum altitude 00:21:41 61° 275° (W) 714 3.6 -11.6°
Drops below altitude 10° 00:26:05 10° 356° (N) 2,003 6.0 -10.6°
Sets 00:28:20 0° 359° (N) 2,907 6.8 -10.1°
